LTCI

Details ICAO LTCI (VAN)
Name VAN
Region Turkey
Timezone Europe/Istanbul (UTC+3.0)
Plans Departing 85
Arriving 89
Stats Elevation 5,480 ft / 1,670 m (AMSL)
Location 38.468221° 43.332300°
Runways 1
Magnetic Variation 5.801° E
Sunrise 2018-05-27 01:48:24 UTC / 2018-05-27 04:48:24 Local
Sunset 2018-05-27 16:22:07 UTC / 2018-05-27 19:22:07 Local
Advertisement - Login to hide

Runways

ID Width Length Bearing (true) Bearing (mag) Surface Threshold Offset Overrun Length
03 148 ft / 45 m 9,018 ft / 2,749 m 37.57° 31.77° Asphalt 0 ft / 0 m 196 ft / 60 m
21 148 ft / 45 m 9,018 ft / 2,749 m 217.59° 211.79° Asphalt 0 ft / 0 m 196 ft / 60 m

Map

Weather


0- 5 10 15 20 25 30 35+ Temperature / ° C

Clouds and Precipitation
Forecast for 2018-05-27 00:00 UTC. Updated an hour ago

Ground ~20,000 ft ~40,000 ft Winds

METAR

LTCI 262350Z 11003KT 9999 FEW035 10/07 Q1021 NOSIG

TAF

Not found

Frequencies

Ground 121.90 MHz GND
Tower 118.10 MHz TWR
Approach 118.10 MHz APP
Tower 122.70 MHz TWR
Approach 122.70 MHz APP
Warning: Do not use this data for real-world aviation or navigation. No guarantee of current accuracy is given.